APG1192 RPVE-RPLL

Flight info

Callsign APG1192
Flight time 0h 36m
Altitude 20000
Route MINOR8A MINOR B473 LAIYA LAIYA3R
Aircraft A320/M-SDE3FGHIRWY/LB1

Departure

Time 2026-04-22 08:34
Airport Godofredo P. Ramos Airport (RPVE)

Arrival

Time 2026-04-22 09:10
Airport Ninoy Aquino International Airport (RPLL)
Time Latitude Longitude Altitude Speed Heading
2026-04-22 07:43 11.92552 121.96291 12 ft 0 kts 65°
2026-04-22 08:22 11.92552 121.96290 12 ft 1 kts 65°
2026-04-22 08:22 11.92546 121.96277 12 ft 2 kts 65°
2026-04-22 08:23 11.92542 121.96268 12 ft 2 kts 65°
2026-04-22 08:23 11.92532 121.96256 12 ft 2 kts 33°
2026-04-22 08:23 11.92519 121.96250 12 ft 2 kts
2026-04-22 08:23 11.92503 121.96250 12 ft 2 kts 345°
2026-04-22 08:24 11.92496 121.96253 12 ft 1 kts 330°
2026-04-22 08:24 11.92492 121.96255 12 ft 0 kts 333°
2026-04-22 08:27 11.92495 121.96254 12 ft 1 kts 333°
2026-04-22 08:27 11.92507 121.96248 12 ft 2 kts 333°
2026-04-22 08:28 11.92528 121.96237 12 ft 4 kts 334°
2026-04-22 08:28 11.92558 121.96223 12 ft 5 kts 342°
2026-04-22 08:28 11.92597 121.96217 12 ft 6 kts 354°
2026-04-22 08:28 11.92643 121.96204 12 ft 7 kts 336°
2026-04-22 08:29 11.92694 121.96177 12 ft 9 kts 332°
2026-04-22 08:29 11.92754 121.96145 12 ft 10 kts 332°
2026-04-22 08:29 11.92800 121.96091 12 ft 11 kts 268°
2026-04-22 08:29 11.92762 121.96018 12 ft 12 kts 241°
2026-04-22 08:30 11.92718 121.95929 12 ft 16 kts 246°
2026-04-22 08:30 11.92654 121.95801 12 ft 23 kts 242°
2026-04-22 08:30 11.92570 121.95633 12 ft 29 kts 243°
2026-04-22 08:30 11.92474 121.95438 12 ft 31 kts 244°
2026-04-22 08:31 11.92379 121.95246 12 ft 29 kts 244°
2026-04-22 08:31 11.92296 121.95091 12 ft 15 kts 229°
2026-04-22 08:31 11.92267 121.95019 12 ft 5 kts 63°
2026-04-22 08:32 11.92285 121.95058 12 ft 6 kts 62°
2026-04-22 08:32 11.92287 121.95061 12 ft 0 kts 62°
2026-04-22 08:33 11.92290 121.95068 12 ft 9 kts 62°
2026-04-22 08:33 11.92446 121.95381 13 ft 88 kts 63°
2026-04-22 08:33 11.92823 121.96139 76 ft 144 kts 64°
2026-04-22 08:34 11.93289 121.97047 684 ft 146 kts 64°
2026-04-22 08:34 11.93758 121.97974 1308 ft 152 kts 65°
2026-04-22 08:34 11.94267 121.98995 1776 ft 169 kts 65°
2026-04-22 08:34 11.94811 122.00111 2284 ft 186 kts 65°
2026-04-22 08:35 11.95424 122.01338 2806 ft 203 kts 64°
2026-04-22 08:35 11.96169 122.02596 3339 ft 221 kts 50°
2026-04-22 08:35 11.97474 122.03567 3879 ft 242 kts 31°
2026-04-22 08:35 11.99029 122.04344 4402 ft 260 kts 29°
2026-04-22 08:36 12.00699 122.05166 5046 ft 271 kts 29°
2026-04-22 08:36 12.02393 122.06010 5828 ft 273 kts 28°
2026-04-22 08:36 12.04100 122.06866 6558 ft 276 kts 28°
2026-04-22 08:36 12.05846 122.07747 7164 ft 282 kts 28°
2026-04-22 08:37 12.07610 122.08632 7845 ft 285 kts 27°
2026-04-22 08:37 12.09403 122.09544 8494 ft 288 kts 27°
2026-04-22 08:37 12.11192 122.10458 9112 ft 293 kts 27°
2026-04-22 08:37 12.13019 122.11376 9834 ft 295 kts 26°
2026-04-22 08:38 12.14893 122.12299 10507 ft 299 kts 25°
2026-04-22 08:38 12.16821 122.13266 10798 ft 318 kts 26°
2026-04-22 08:38 12.18849 122.14298 11077 ft 335 kts 26°
2026-04-22 08:38 12.21003 122.15390 11336 ft 352 kts 26°
2026-04-22 08:39 12.23270 122.16525 11593 ft 368 kts 26°
2026-04-22 08:39 12.25599 122.17712 11915 ft 380 kts 26°
2026-04-22 08:39 12.28002 122.18932 12446 ft 385 kts 26°
2026-04-22 08:39 12.30407 122.20149 12993 ft 388 kts 26°
2026-04-22 08:40 12.32824 122.21368 13530 ft 391 kts 25°
2026-04-22 08:40 12.35429 122.22202 14037 ft 393 kts
2026-04-22 08:40 12.38149 122.22018 14610 ft 392 kts 345°
2026-04-22 08:40 12.40646 122.20917 15169 ft 393 kts 328°
2026-04-22 08:41 12.42920 122.19367 15618 ft 397 kts 326°
2026-04-22 08:41 12.45224 122.17738 16114 ft 400 kts 325°
2026-04-22 08:41 12.47517 122.16115 16599 ft 402 kts 326°
2026-04-22 08:41 12.49818 122.14494 17047 ft 405 kts 326°
2026-04-22 08:42 12.52168 122.12846 17493 ft 408 kts 326°
2026-04-22 08:42 12.54510 122.11212 17934 ft 410 kts 326°
2026-04-22 08:42 12.56871 122.09569 18355 ft 413 kts 326°
2026-04-22 08:42 12.59277 122.07896 18783 ft 415 kts 326°
2026-04-22 08:43 12.61659 122.06239 19181 ft 418 kts 326°
2026-04-22 08:43 12.64089 122.04549 19586 ft 420 kts 326°
2026-04-22 08:43 12.66519 122.02859 19790 ft 421 kts 326°
2026-04-22 08:43 12.68943 122.01172 19806 ft 420 kts 325°
2026-04-22 08:44 12.71367 121.99484 19810 ft 420 kts 325°
2026-04-22 08:44 12.73755 121.97820 19807 ft 419 kts 325°
2026-04-22 08:44 12.76181 121.96130 19808 ft 419 kts 325°
2026-04-22 08:44 12.78589 121.94453 19824 ft 419 kts 325°
2026-04-22 08:45 12.81029 121.92752 19820 ft 419 kts 326°
2026-04-22 08:45 12.83432 121.91078 19815 ft 419 kts 326°
2026-04-22 08:45 12.85827 121.89409 19811 ft 419 kts 325°
2026-04-22 08:45 12.88244 121.87723 19815 ft 418 kts 325°
2026-04-22 08:46 12.90670 121.86031 19821 ft 418 kts 325°
2026-04-22 08:46 12.93066 121.84360 19819 ft 419 kts 325°
2026-04-22 08:46 12.95504 121.82660 19815 ft 419 kts 325°
2026-04-22 08:46 12.97900 121.80987 19822 ft 419 kts 325°
2026-04-22 08:47 13.00335 121.79287 19824 ft 420 kts 325°
2026-04-22 08:47 13.02766 121.77590 19832 ft 420 kts 325°
2026-04-22 08:47 13.05169 121.75912 19829 ft 419 kts 325°
2026-04-22 08:47 13.07590 121.74221 19841 ft 419 kts 325°
2026-04-22 08:48 13.10014 121.72527 19848 ft 419 kts 325°
2026-04-22 08:48 13.12412 121.70857 19845 ft 419 kts 325°
2026-04-22 08:48 13.14853 121.69160 19825 ft 419 kts 325°
2026-04-22 08:48 13.17275 121.67474 19846 ft 419 kts 325°
2026-04-22 08:49 13.19663 121.65807 19841 ft 419 kts 325°
2026-04-22 08:49 13.22085 121.64117 19841 ft 418 kts 325°
2026-04-22 08:49 13.24501 121.62427 19838 ft 419 kts 325°
2026-04-22 08:49 13.26914 121.60738 19833 ft 419 kts 325°
2026-04-22 08:50 13.29327 121.59048 19843 ft 419 kts 325°
2026-04-22 08:50 13.31735 121.57361 19842 ft 419 kts 325°
2026-04-22 08:50 13.34143 121.55673 19834 ft 419 kts 325°
2026-04-22 08:50 13.36554 121.53982 19842 ft 420 kts 325°
2026-04-22 08:51 13.38951 121.52302 19844 ft 420 kts 325°
2026-04-22 08:51 13.41356 121.50613 19505 ft 418 kts 325°
2026-04-22 08:51 13.43759 121.48924 19062 ft 415 kts 326°
2026-04-22 08:51 13.46116 121.47266 18772 ft 403 kts 326°
2026-04-22 08:52 13.48382 121.45672 18665 ft 388 kts 326°
2026-04-22 08:52 13.50592 121.44117 18553 ft 373 kts 326°
2026-04-22 08:52 13.52676 121.42651 18424 ft 360 kts 326°
2026-04-22 08:52 13.54724 121.41213 18343 ft 346 kts 326°
2026-04-22 08:53 13.56689 121.39833 18249 ft 333 kts 326°
2026-04-22 08:53 13.58557 121.38495 17969 ft 328 kts 325°
2026-04-22 08:53 13.60411 121.37120 17602 ft 326 kts 324°
2026-04-22 08:53 13.62235 121.35757 17221 ft 325 kts 324°
2026-04-22 08:54 13.64052 121.34398 16830 ft 324 kts 324°
2026-04-22 08:54 13.65875 121.33053 16501 ft 320 kts 326°
2026-04-22 08:54 13.67713 121.31738 16193 ft 316 kts 326°
2026-04-22 08:54 13.69514 121.30453 15870 ft 313 kts 326°
2026-04-22 08:55 13.71289 121.29183 15544 ft 312 kts 326°
2026-04-22 08:55 13.73066 121.27909 15197 ft 310 kts 326°
2026-04-22 08:55 13.74864 121.26616 14701 ft 317 kts 326°
2026-04-22 08:55 13.76672 121.25315 14137 ft 323 kts 326°
2026-04-22 08:56 13.78539 121.23971 13561 ft 328 kts 325°
2026-04-22 08:56 13.80413 121.22621 12981 ft 332 kts 325°
2026-04-22 08:56 13.82306 121.21255 12390 ft 336 kts 325°
2026-04-22 08:56 13.84222 121.19872 11816 ft 339 kts 325°
2026-04-22 08:57 13.86169 121.18465 11318 ft 339 kts 326°
2026-04-22 08:57 13.88072 121.17089 11069 ft 330 kts 326°
2026-04-22 08:57 13.89900 121.15767 11050 ft 314 kts 326°
2026-04-22 08:57 13.91640 121.14510 11044 ft 301 kts 326°
2026-04-22 08:58 13.93355 121.13270 11035 ft 300 kts 326°
2026-04-22 08:58 13.95082 121.12020 11016 ft 301 kts 326°
2026-04-22 08:58 13.96814 121.10768 10476 ft 308 kts 326°
2026-04-22 08:58 13.98589 121.09485 9867 ft 314 kts 326°
2026-04-22 08:59 14.00354 121.08209 9270 ft 311 kts 327°
2026-04-22 08:59 14.02107 121.06941 8667 ft 303 kts 326°
2026-04-22 08:59 14.03805 121.05714 8081 ft 295 kts 326°
2026-04-22 08:59 14.05454 121.04520 7487 ft 288 kts 326°
2026-04-22 09:00 14.07089 121.03338 6899 ft 287 kts 326°
2026-04-22 09:00 14.08729 121.02151 6269 ft 290 kts 326°
2026-04-22 09:00 14.10373 121.00962 5630 ft 285 kts 326°
2026-04-22 09:00 14.11976 120.99805 5191 ft 275 kts 326°
2026-04-22 09:01 14.13536 120.98683 5022 ft 273 kts 326°
2026-04-22 09:01 14.15084 120.97566 5002 ft 267 kts 326°
2026-04-22 09:01 14.16589 120.96478 5000 ft 262 kts 326°
2026-04-22 09:01 14.18071 120.95404 4994 ft 258 kts 326°
2026-04-22 09:02 14.19530 120.94346 4993 ft 256 kts 326°
2026-04-22 09:02 14.20990 120.93287 4996 ft 255 kts 326°
2026-04-22 09:02 14.22459 120.92221 5002 ft 255 kts 326°
2026-04-22 09:02 14.23885 120.91187 4997 ft 245 kts 326°
2026-04-22 09:03 14.25249 120.90196 5001 ft 237 kts 326°
2026-04-22 09:03 14.26604 120.89213 5001 ft 237 kts 326°
2026-04-22 09:03 14.27967 120.88287 4970 ft 237 kts 331°
2026-04-22 09:03 14.29407 120.87437 4758 ft 235 kts 332°
2026-04-22 09:04 14.30834 120.86616 4528 ft 232 kts 332°
2026-04-22 09:04 14.32232 120.85809 4288 ft 230 kts 332°
2026-04-22 09:04 14.33629 120.85003 4042 ft 228 kts 333°
2026-04-22 09:04 14.35016 120.84200 3793 ft 227 kts 333°
2026-04-22 09:05 14.36393 120.83404 3542 ft 226 kts 332°
2026-04-22 09:05 14.37780 120.82629 3276 ft 225 kts 340°
2026-04-22 09:05 14.39276 120.82480 3013 ft 215 kts 20°
2026-04-22 09:05 14.40512 120.83305 2998 ft 212 kts 52°
2026-04-22 09:06 14.41318 120.84566 3007 ft 209 kts 62°
2026-04-22 09:06 14.41994 120.85878 2894 ft 202 kts 63°
2026-04-22 09:06 14.42651 120.87154 2653 ft 201 kts 63°
2026-04-22 09:06 14.43330 120.88415 2407 ft 200 kts 62°
2026-04-22 09:07 14.43997 120.89619 2243 ft 185 kts 62°
2026-04-22 09:07 14.44614 120.90720 1976 ft 173 kts 62°
2026-04-22 09:07 14.45203 120.91772 1747 ft 161 kts 63°
2026-04-22 09:07 14.45742 120.92737 1531 ft 150 kts 62°
2026-04-22 09:08 14.46247 120.93644 1342 ft 141 kts 64°
2026-04-22 09:08 14.46725 120.94504 1163 ft 138 kts 64°
2026-04-22 09:08 14.47204 120.95365 1009 ft 138 kts 64°
2026-04-22 09:08 14.47672 120.96214 848 ft 137 kts 63°
2026-04-22 09:09 14.48151 120.97071 677 ft 137 kts 62°
2026-04-22 09:09 14.48620 120.97922 505 ft 136 kts 63°
2026-04-22 09:09 14.49097 120.98773 359 ft 136 kts 61°
2026-04-22 09:09 14.49572 120.99618 165 ft 136 kts 63°
2026-04-22 09:10 14.50033 121.00462 37 ft 129 kts 63°
2026-04-22 09:10 14.50395 121.01115 40 ft 79 kts 62°
2026-04-22 09:10 14.50614 121.01508 48 ft 52 kts 62°
2026-04-22 09:10 14.50766 121.01720 51 ft 31 kts 42°
2026-04-22 09:11 14.50874 121.01805 52 ft 0 kts 36°
2026-04-22 09:12 14.50878 121.01809 52 ft 1 kts 36°
2026-04-22 09:12 14.50882 121.01811 52 ft 0 kts 34°
2026-04-22 09:12 14.50885 121.01813 52 ft 1 kts 32°
2026-04-22 09:13 14.50897 121.01815 52 ft 2 kts 349°
2026-04-22 09:13 14.50913 121.01801 52 ft 3 kts 301°
2026-04-22 09:13 14.50917 121.01775 53 ft 3 kts 265°
2026-04-22 09:13 14.50906 121.01746 53 ft 5 kts 242°
2026-04-22 09:14 14.50896 121.01727 53 ft 5 kts 241°
2026-04-22 09:14 14.50902 121.01655 53 ft 11 kts 306°
2026-04-22 09:14 14.50887 121.01557 54 ft 17 kts 233°
2026-04-22 09:14 14.50845 121.01489 55 ft 5 kts 241°
2026-04-22 09:15 14.50813 121.01422 53 ft 11 kts 266°
2026-04-22 09:15 14.50849 121.01390 53 ft 6 kts 331°
2026-04-22 09:15 14.50881 121.01371 53 ft 0 kts 330°
2026-04-22 09:15 14.50883 121.01369 53 ft 0 kts 330°